Regional Weather Roundup
Issued by NWS

Home | Current Version | Previous Version | Graphics & Text | Print | Product List | Glossary Off
Versions: 1 2 3 4 5 6 7 8 9 10 11 12 13 14 15 16 17 18 19 20 21 22 23 24 25 26 27 28 29 30 31 32 33 34 35 36 37 38 39 40 41 42 43 44 45 46 47 48 49 50

000
ASUS43 KMKX 250211
RWRWI

WISCONSIN REGIONAL WEATHER ROUNDUP
NATIONAL WEATHER SERVICE MILWAUKEE/SULLIVAN WI
900 PM CDT FRI MAR 24 2017

NOTE: "FAIR" INDICATES FEW OR NO CLOUDS BELOW 12,000 FEET WITH NO
SIGNIFICANT WEATHER AND/OR OBSTRUCTIONS TO VISIBILITY.

WIZ001-002-006>008-014>016-023>028-250300-
NORTHWEST WISCONSIN

CITY           SKY/WX    TMP DP  RH WIND       PRES   REMARKS
SUPERIOR ARPT  CLOUDY    36  33  90 NE7       30.24S WCI  30
ASHLAND        CLOUDY    35  32  88 NE12      30.25R WCI  27
HAYWARD        CLOUDY    37  29  72 NE12      30.19F WCI  29
SIREN          CLOUDY    38  32  79 E6        30.20R WCI  33
CUMBERLAND     CLOUDY    36  30  80 NE7       30.18R WCI  30
RICE LAKE      CLOUDY    37  33  84 CALM      30.20R
CHETEK         CLOUDY    37  33  84 N5        30.19R WCI  34
LADYSMITH      CLOUDY    37  33  85 NE7G17    30.19R WCI  32
EAU CLAIRE     CLOUDY    39  34  82 NE6       30.17R WCI  35
MENOMONIE      CLOUDY    39  34  83 N8        30.18R WCI  34
NEW RICHMOND   CLOUDY    38  32  79 NE10      30.19R WCI  31
OSCEOLA        CLOUDY    38  34  83 NE7       30.22R WCI  33
$$

WIZ003>005-009-010-017-018-250300-
NORTH CENTRAL WISCONSIN

CITY           SKY/WX    TMP DP  RH WIND       PRES   REMARKS
MANITOWISH WTR CLOUDY    33  33 100 N6        30.18R WCI  27
ARBOR VITAE    CLOUDY    37  34  90 NE5       30.16R WCI  33
WOODRUFF       CLOUDY    37  34  90 NE5       30.16R WCI  33
RHINELANDER    CLOUDY    36  33  89 NE8       30.17R WCI  30
EAGLE RIVER    CLOUDY    34  32  94 NE8       30.16R WCI  27
LAND O LAKES   CLOUDY    33  33  99 NE7       30.19R FOG     WCI  27
PHILLIPS       CLOUDY    34  32  92 NE9       30.16S WCI  27
TOMAHAWK       CLOUDY    34  32  90 N6        30.17R WCI  29
MEDFORD        CLOUDY    35  32  90 NE12      30.14R WCI  27
MERRILL        CLOUDY    36  34  93 NE7       30.17R WCI  30
$$

WIZ029-030-035-036-043>047-250300-
CENTRAL WISCONSIN

CITY           SKY/WX    TMP DP  RH WIND       PRES   REMARKS
WAUSAU         CLOUDY    37  34  89 NE9       30.13R WCI  30
MOSINEE        CLOUDY    36  36 100 N7        30.14R WCI  30
MARSHFIELD     CLOUDY    37  35  92 NE6       30.12R WCI  32
STEVENS POINT  CLOUDY    35  35 100 NE7       30.14R WCI  29
WAUPACA        LGT RAIN  38  37  92 NE7       30.14R WCI  33
WAUTOMA        RAIN      36  35  96 NE9       30.12R WCI  29
WISC RAPIDS    LGT RAIN  38  37  97 NE8       30.14R WCI  32
CAMP DOUGLAS   LGT RAIN  37  37 100 NE5       30.12R WCI  34
$$

WIZ011>013-019>022-031-037>040-048>050-250300-
NORTHEAST WISCONSIN

CITY           SKY/WX    TMP DP  RH WIND       PRES   REMARKS
ANTIGO         CLOUDY    33  32  96 NE12      30.15R WCI  25
SHAWANO        CLOUDY    38  35  89 NE9       30.15R WCI  31
OCONTO         CLOUDY    36  34  94 NE7       30.17R WCI  30
STURGEON BAY   CLOUDY    35  34  96 MISG      30.16R
GREEN BAY      LGT RAIN  36  36 100 NE14      30.14S FOG     WCI  27
MANITOWOC      LGT RAIN  36  34  92 N10G17    30.12R WCI  28
APPLETON       LGT RAIN  36  36 100 NE14G22   30.09F WCI  27
CLINTONVILLE   DRIZZLE   36  36 100 NE12      30.14R WCI  27
OSHKOSH        LGT RAIN  36  34  92 NE13      30.11R WCI  27
$$

WIZ032>034-041-042-053>061-250300-
SOUTHWEST WISCONSIN

CITY           SKY/WX    TMP DP  RH WIND       PRES   REMARKS
LA CROSSE      LGT RAIN  42  38  85 NE7       30.13R
SPARTA         DRIZZLE   39  37  95 NE9       30.14R WCI  32
VIROQUA        CLOUDY    37  37  98 NE14      30.09R WCI  29
BOSCOBEL       LGT RAIN  42  39  89 NE6       30.09R
PRAIRIE DU CHI LGT RAIN  40  39  95 NE7       30.08R
PLATTEVILLE    MOCLDY    44  42  95 NE13      30.05R
$$

WIZ056-057-062-063-064-067-068-250300-
SOUTH CENTRAL WISCONSIN

CITY           SKY/WX    TMP DP  RH WIND       PRES   REMARKS
REEDSBURG      CLOUDY    37  37 100 NE9       30.10R WCI  30
BARABOO/DELLS  CLOUDY    36  35  96 NE7       30.10R WCI  31
LONE ROCK      CLOUDY    40  36  86 NE9       30.10R WCI  34
MINERAL POINT  CLOUDY    41  41 100 NE15      30.05R
MADISON        CLOUDY    38  35  89 N14       30.08R WCI  30
MIDDLETON      CLOUDY    40  37  87 NE9G16    30.09S WCI  34
WATERTOWN      CLOUDY    39  38  97 NE9       30.08R WCI  33
MONROE         RAIN      41  39  93 NE14      30.05R
JANESVILLE     CLOUDY    45  39  81 NE7       30.06R
$$

WIZ051-052-058>065-066-070>072-250300-
SOUTHEAST WISCONSIN

CITY           SKY/WX    TMP DP  RH WIND       PRES   REMARKS
MILWAUKEE      CLOUDY    38  34  85 NE16      30.09R WCI  29
WAUKESHA       CLOUDY    36  32  87 NE8G17    30.09R WCI  29
MILWAUKEE/TIMM CLOUDY    37  32  81 NE14G21   30.07S WCI  29
RACINE         CLOUDY    38  34  85 N16G23    30.10R WCI  29
KENOSHA        LGT RAIN  38  35  89 NE16G22   30.06S WCI  29
FOND DU LAC    CLOUDY    37  34  89 N10       30.12R WCI  30
SHEBOYGAN      CLOUDY    36  33  89 N17G24    30.11R WCI  26
WEST BEND      CLOUDY    36  36 100 NE9       30.09S WCI  29
JUNEAU         CLOUDY    37  34  92 NE9       30.10R WCI  30
$$

LSZ147-162-250300-
LAKE SUPERIOR

STATION/POSITION TIME  TEMP    WIND        PRES    WAVE
                       AIR SEA DIR/SP/G            HT/PER
                 (UTC) (F)     (DEG/KT/KT) (MB)    (FT/S)
DEVILS ISLAND    0100   35      70/ 14/ 15 1024.6R
PORT WING        0140   37      80/  2/  6 1024.4R
SAXON HARBOR     0140   35      60/  9/ 11 1024.0R
$$

LMZ867-665-643>646-250300-
LAKE MICHIGAN

STATION/POSITION TIME  TEMP    WIND        PRES    WAVE
                       AIR SEA DIR/SP/G            HT/PER
                 (UTC) (F)     (DEG/KT/KT) (MB)    (FT/S)
CHAMBERS ISLAND  0130   34      10/ 10/ 12 1021.0R
NORTHPORT PIER   0140   35      10/ 13/ 16 1021.3R
SISTER BAY       0036   35      20/  9/ 11   N/A
KEWAUNEE LAKESHO 0148   36      30/ 10/ 15 1020.2R
SHEBOYGAN LAKESH 0200   36      10/ 19/ 21 1019.9R
PORT WASHINGTON  0140   38      30/ 12/ 19 1019.6R
MILWAUKEE LAKESH 0150   37      20/ 17/ 23   N/A
KENOSHA   LAKESH 0100   38     360/ 21/ 24 1017.9
$$

TC  - TEMPERATURE IN CELSIUS
VSB - VISIBILITY IN STATUTE MILES
WCI - WIND CHILL INDEX
HX  - HEAT INDEX





USA.gov is the U.S. government's official web portal to all federal, state and local government web resources and services.